TimeEDT,TemperatureF,Dew PointF,Humidity,Sea Level PressureIn,VisibilityMPH,Wind Direction,Wind SpeedMPH,Gust SpeedMPH,PrecipitationIn,Events,Conditions,WindDirDegrees,DateUTC
12:54 AM,64.9,55.0,70,29.94,10.0,South,8.1,-,N/A,,Clear,180,2012-10-25 04:54:00
1:54 AM,64.0,54.0,70,29.93,10.0,South,6.9,-,N/A,,Clear,180,2012-10-25 05:54:00
2:54 AM,63.0,53.1,70,29.92,10.0,South,6.9,-,N/A,,Clear,180,2012-10-25 06:54:00
3:54 AM,62.1,53.1,72,29.91,10.0,South,6.9,-,N/A,,Clear,180,2012-10-25 07:54:00
4:54 AM,62.1,53.1,72,29.91,10.0,South,8.1,-,N/A,,Clear,190,2012-10-25 08:54:00
5:54 AM,60.1,53.1,78,29.91,10.0,SSW,6.9,-,N/A,,Clear,200,2012-10-25 09:54:00
6:54 AM,60.1,53.1,78,29.91,10.0,South,5.8,-,N/A,,Clear,190,2012-10-25 10:54:00
7:54 AM,59.0,53.1,81,29.93,10.0,SW,5.8,-,N/A,,Clear,220,2012-10-25 11:54:00
8:54 AM,59.0,54.0,83,29.94,10.0,South,5.8,-,N/A,,Clear,180,2012-10-25 12:54:00
9:54 AM,64.0,55.9,75,29.94,10.0,South,8.1,-,N/A,,Clear,190,2012-10-25 13:54:00
10:54 AM,68.0,55.9,65,29.92,10.0,SSW,16.1,20.7,N/A,,Partly Cloudy,200,2012-10-25 14:54:00
11:54 AM,72.0,57.0,59,29.90,10.0,SSW,15.0,20.7,N/A,,Partly Cloudy,210,2012-10-25 15:54:00
12:54 PM,73.9,57.0,55,29.88,10.0,SSW,15.0,24.2,N/A,,Scattered Clouds,200,2012-10-25 16:54:00
1:54 PM,75.9,57.0,52,29.84,10.0,SSW,12.7,27.6,N/A,,Partly Cloudy,200,2012-10-25 17:54:00
2:54 PM,75.9,57.0,52,29.83,10.0,SSW,18.4,28.8,N/A,,Partly Cloudy,200,2012-10-25 18:54:00
4:54 PM,75.9,57.0,52,29.80,10.0,South,16.1,29.9,N/A,,Clear,190,2012-10-25 20:54:00
5:54 PM,75.0,57.0,53,29.81,10.0,SSW,15.0,25.3,N/A,,Scattered Clouds,200,2012-10-25 21:54:00
6:54 PM,73.0,57.0,57,29.81,10.0,South,10.4,19.6,N/A,,Partly Cloudy,190,2012-10-25 22:54:00
7:54 PM,71.1,57.0,61,29.82,10.0,SSW,10.4,17.3,N/A,,Clear,200,2012-10-25 23:54:00
8:54 PM,70.0,57.0,63,29.83,10.0,South,10.4,17.3,N/A,,Mostly Cloudy,190,2012-10-26 00:54:00
9:50 PM,57.2,50.0,77,29.88,10.0,NW,20.7,28.8,N/A,,Overcast,320,2012-10-26 01:50:00
9:54 PM,55.9,50.0,80,29.89,10.0,WNW,18.4,28.8,N/A,,Overcast,300,2012-10-26 01:54:00
10:54 PM,51.1,46.9,86,29.95,10.0,NW,13.8,20.7,0.00,,Overcast,320,2012-10-26 02:54:00
11:54 PM,48.9,-9999,N/A,30.00,10.0,NW,15.0,-,0.00,Rain,Light Rain,310,2012-10-26 03:54:00